星链-5579 (STARLINK-5579 )

导读

STARLINK-5579是美国太空探索技术公司(SpaceX)星链(Starlink)卫星星座的一员,发射于2023年3月3日,是星链项目批量发射组网卫星中的一颗,旨在为全球提供高速低延迟互联网覆盖服务,星链系统在完成组网后将由数万颗近地轨道卫星构成。

Basic Information
目录编号:
55746
目录名称:
STARLINK-5579
国际标识:
2023-028F
轨道中心:
EARTH
卫星名称:
星链-5579
卫星全名:
星链-5579 (STARLINK-5579 )
卫星状态:
在轨 (已飞行1200 天)
发射日期:
2023-03-03 UTC
国别 :
美国 (US)
星等 :
--
Orbit Information
数据来源 国际轨道数据 AOE轨道数据
星历时间 2026-06-15T04:13:44+0800
7小时前
查看轨道信息
2026-06-14T01:00:00+0800
1天前
查看轨道信息
半长轴 6950.192km 6950.146km
偏心率 0.0002775 0.0002986
轨道倾角 70.000° 69.999°
近地点辐角 267.534° 275.967°
升交点赤经 359.465° 2.324°
平近点角 92.550° 86.170°
近地点 570.126km 569.933km
远地点 573.984km 574.085km
周期 96.107分钟 96.106分钟
每日圈数 14.983306 14.983454
Detailed Information
固有亮度:
5
最大亮度:
2.5
卫星平台:
Starlink v1.5
覆盖范围:
全球
运营商:
太空探索技术公司
运营商所在国:
美国
制造商(研发单位):
太空探索技术公司
制造商所在国:
美国
使用方式:
暂无
Satellite Introduction
星链(Starlink)计划是由太空探索技术公司(SpaceX)提出的一个巨型低轨卫星互联网星座项目,计划在2019年至2024年间在太空搭建由约1.2万颗卫星组成的“星链”网络,其中1584颗将部署在地球上空550千米处的近地轨道,并从2020年开始工作。该卫星仍在工作。
2D Orbit Map
3D Orbit Map
Orbit Altitude Analysis Chart
Orbit Inclination Analysis Chart
Orbit Comprehensive Analysis Chart
View Comprehensive Chart